GW0118 Weather Reports


Display with metric or nautical units.
time (UTC)temp
F
wind
direction
speed
MPH
gust
MPH
rain 1hr
in
rain 24hr
in
rain mn
in
humidity
%
barometer
mb
20260509001557 49 169 1.0 5.0 0.00 0.18 0.00 90 1012.5
20260509000105 49 152 0.0 6.0 0.00 0.18 0.00 90 1012.5
20260508234558 49 0 0.0 3.0 0.00 0.18 0.00 91 1012.7
20260508233100 49 0 0.0 3.0 0.00 0.18 0.00 91 1012.8
20260508231559 48 0 0.0 1.0 0.00 0.18 0.00 92 1012.8
20260508230058 48 116 0.0 1.0 0.00 0.18 0.00 92 1012.9
20260508224635 48 129 1.0 5.0 0.00 0.18 0.00 92 1012.9
20260508223101 48 76 2.0 4.0 0.00 0.18 0.00 93 1013.1
20260508221559 47 94 0.0 2.0 0.00 0.18 0.00 93 1013.0
20260508220058 47 117 1.0 3.0 0.00 0.18 0.00 93 1013.1
20260508214600 47 122 0.0 1.0 0.00 0.18 0.18 93 1013.1
20260508213057 47 79 1.0 2.0 0.00 0.18 0.18 92 1013.1
20260508211602 48 0 0.0 3.0 0.00 0.18 0.18 92 1013.1
20260508210100 48 0 0.0 0.0 0.00 0.18 0.18 92 1012.9
20260508204600 49 136 1.0 2.0 0.00 0.18 0.18 91 1013.0
20260508203108 49 0 0.0 1.0 0.00 0.18 0.18 91 1012.8
20260508201605 50 113 0.0 1.0 0.00 0.18 0.18 91 1012.7
20260508200059 50 0 0.0 1.0 0.00 0.18 0.18 90 1012.6
20260508194559 50 0 0.0 1.0 0.00 0.18 0.18 90 1012.4
20260508193103 51 0 0.0 1.0 0.00 0.18 0.18 89 1012.4
20260508191601 51 0 0.0 0.0 0.00 0.18 0.18 88 1012.2
20260508190100 52 0 0.0 2.0 0.00 0.18 0.18 86 1012.1
20260508184601 53 59 1.0 2.0 0.00 0.18 0.18 84 1011.8
20260508183100 53 0 0.0 2.0 0.00 0.18 0.18 85 1011.9
20260508181600 53 108 0.0 2.0 0.00 0.18 0.18 83 1011.9
20260508174601 52 0 0.0 1.0 0.00 0.18 0.18 84 1011.7
20260508173059 52 0 0.0 2.0 0.00 0.18 0.18 85 1011.9
20260508171559 51 195 1.0 4.0 0.00 0.18 0.18 85 1011.9
20260508170101 52 247 3.0 8.0 0.00 0.18 0.18 85 1012.0
20260508164558 52 257 4.0 7.0 0.00 0.18 0.18 84 1011.9
20260508163059 53 259 3.0 4.0 0.00 0.18 0.18 82 1011.8
20260508161601 54 205 2.0 7.0 0.00 0.18 0.18 82 1011.7
20260508160100 54 187 1.0 3.0 0.00 0.18 0.18 83 1011.8
20260508154613 53 128 0.0 3.0 0.05 0.18 0.18 87 1011.9
20260508153059 52 120 1.0 4.0 0.09 0.18 0.18 88 1011.9
20260508151558 50 143 2.0 5.0 0.11 0.18 0.18 89 1012.3
20260508150110 50 153 2.0 7.0 0.11 0.18 0.18 89 1012.4
20260508144606 50 212 3.0 8.0 0.06 0.18 0.13 87 1012.7
20260508143129 52 212 3.0 10.0 0.02 0.14 0.09 86 1012.7
20260508141606 52 255 0.0 2.0 0.03 0.12 0.07 84 1012.3
20260508140113 51 254 2.0 4.0 0.03 0.11 0.07 85 1012.0
20260508134604 50 295 1.0 6.0 0.06 0.12 0.07 86 1012.1
20260508133110 48 0 1.0 11.0 0.07 0.12 0.07 87 1012.3
20260508131605 47 227 3.0 19.0 0.04 0.10 0.04 86 1012.4
20260508130103 48 276 7.0 25.0 0.03 0.09 0.03 80 1012.5
20260508124602 55 277 8.0 22.0 0.00 0.07 0.00 68 1012.1
20260508121607 59 198 4.0 14.0 0.00 0.07 0.00 64 1011.6
20260508120104 59 229 2.0 12.0 0.00 0.07 0.00 67 1011.6
20260508114600 58 200 3.0 9.0 0.00 0.07 0.00 68 1012.0
20260508113100 57 280 4.0 16.0 0.00 0.07 0.00 70 1012.1
20260508111606 57 216 6.0 11.0 0.00 0.07 0.00 68 1012.4
20260508110111 56 198 3.0 11.0 0.00 0.07 0.00 70 1012.5
20260508104612 55 306 5.0 12.0 0.00 0.07 0.00 71 1012.4
20260508103102 55 176 5.0 13.0 0.00 0.07 0.00 71 1012.3
20260508101557 55 247 4.0 9.0 0.00 0.07 0.00 73 1012.4
20260508100057 54 163 3.0 7.0 0.00 0.07 0.00 74 1012.3
20260508094559 52 158 5.0 12.0 0.00 0.07 0.00 75 1012.3
20260508093100 51 216 5.0 9.0 0.00 0.07 0.00 78 1012.7
20260508091609 50 172 5.0 10.0 0.00 0.07 0.00 81 1012.8
20260508090104 48 0 1.0 3.0 0.00 0.07 0.00 86 1012.8
20260508084614 46 0 0.0 1.0 0.00 0.07 0.00 88 1012.8
20260508083108 45 0 2.0 4.0 0.00 0.07 0.00 90 1012.5
20260508081558 44 35 0.0 1.0 0.00 0.07 0.00 90 1012.5
20260508080111 44 60 0.0 2.0 0.00 0.07 0.00 91 1012.7
20260508074628 43 53 0.0 1.0 0.00 0.07 0.00 90 1012.7
20260508073101 42 60 1.0 3.0 0.00 0.07 0.00 91 1012.7
20260508071558 43 0 0.0 1.0 0.00 0.07 0.00 90 1012.7
20260508070104 42 0 0.0 1.0 0.00 0.07 0.00 91 1012.8
20260508064600 41 67 0.0 1.0 0.00 0.07 0.00 91 1012.8
20260508063059 40 47 0.0 1.0 0.00 0.07 0.00 91 1012.9
20260508061600 40 0 0.0 1.0 0.00 0.07 0.00 91 1012.8
20260508054601 40 0 0.0 0.0 0.00 0.07 0.00 92 1012.6
20260508053103 39 0 0.0 1.0 0.00 0.07 0.00 92 1012.6
20260508051616 38 0 0.0 1.0 0.00 0.07 0.00 92 1012.3
20260508050116 39 0 0.0 1.0 0.00 0.07 0.00 92 1012.1
20260508044559 39 0 0.0 1.0 0.00 0.07 0.00 92 1011.9
20260508043105 40 63 0.0 1.0 0.00 0.07 0.00 92 1011.8
20260508041604 40 121 0.0 1.0 0.00 0.07 0.00 92 1011.8
20260508040114 39 0 0.0 1.0 0.00 0.07 0.00 92 1011.7
20260508034606 39 0 0.0 1.0 0.00 0.07 0.00 92 1011.6
20260508031606 40 0 0.0 1.0 0.00 0.07 0.00 91 1011.7
20260508030104 40 0 0.0 1.0 0.00 0.07 0.00 92 1011.8
20260508024609 40 49 0.0 1.0 0.00 0.07 0.00 92 1012.0
20260508023059 40 0 0.0 0.0 0.00 0.07 0.00 92 1012.3
20260508021602 40 0 0.0 1.0 0.00 0.07 0.00 92 1012.4
20260508014601 41 0 0.0 1.0 0.00 0.07 0.00 92 1012.5
20260508013110 41 0 0.0 3.0 0.00 0.07 0.00 92 1012.8
20260508011600 41 0 0.0 1.0 0.00 0.07 0.00 91 1012.9
20260508010100 42 132 0.0 1.0 0.00 0.07 0.00 91 1013.1
20260508004604 42 129 0.0 0.0 0.00 0.07 0.00 91 1013.2
20260508003104 42 0 0.0 1.0 0.00 0.07 0.00 91 1013.3